FENGYUN 1C DEB, 38809

Orbit data source: Space-Track

FENGYUN 1C DEB, 38809 is space debris in SSO originally from a launch on Mon, 10 May 1999 UTC launched from the Taiyaun Space Center, China (TSC). Fengyun 1C debris stems from the Chinese weather satellite Fengyun-1C, which was intentionally destroyed by a Chinese anti-satellite missile in 2007. This event dramatically increased the amount of space debris, with thousands of trackable fragments posing hazards to satellites and human spaceflight. The Fengyun 1C debris cloud has become a focal point in discussions about space sustainability and the need for international regulations to prevent the creation of new debris.

Loading next visibility...
Identifier
38809, 1999-025EUZ
Orbit
SSO
Country
Flag of CNCN / PRC
Related business
Manufacturer
Unknown
Mission
Spacecraft
Bus & Motor
Unknown
Mass
Unknown
Launch date (UTC)
1999-05-10 (27 years ago)
Launch vehicle
Unknown
Launch site
Taiyaun Space Center, China (TSC)
Object type
Payload
Rocket body
Debris
Shape & HBR
Unknown shape, 0.1 m
Radar Cross Section
Small (<0.1 m²)

Expand to show TLE details & history
Last TLE update: 17 hours ago

TLE from 17 hours ago
0 FENGYUN 1C DEB
1 38809U 99025EUZ 26121.21358039  .00000960  00000-0  38280-3 0  9995
2 38809  98.5846 132.0563 0220399 285.3379  72.3539 14.18562050711833
Epoch: 2026-05-01T05:07Z
TLE epoch observation values (Epoch: 2026-05-01T05:07:33.345Z)
Latitude
-0.00007°
Longitude
-163.98169°
Altitude
788.181 km
Speed
7.483 km/s
True Right ascension
08h 48m 13s
True Declination
0° 00' 00"
Sunlit
Object was in daylight at epoch
Visualization orbit readout
Latitude
Unknown
Longitude
Unknown
Altitude
Unknown
Speed
Unknown
Apparent Right ascension
Unknown
Apparent Declination
Unknown
Sunlit
N/A
Visualization observer readout
Local Sidereal Time
05:16:54
Azimuth
Unknown
Elevation
Unknown
Doppler factor
Unknown
Orbital elements
Apogee altitude
986.181 km
Perigee altitude
668.564 km
Semi-major axis
7,205.509 km
Eccentricity
0.02204
Inclination
98.5846°
RAAN
132.0563°
Arg. of periapsis
285.3379°
True anomaly
74.78019°
Mean anomaly
72.3539°
Eccentric anomaly
73.5651°
Mean motion
3.54851 °/min
Orbital period
101.45 mins
BSTAR
0.0003828
Loading maneuver chart data...
Computing Atmospheric mass density...

Documentation

Showing up to 5 results
|